Location: Piolenc
(44.1794°N, 4.7641°E)
Time: 04:33:19
(UTC+00:00)

SL-16 R/B - Pass Details

Date: 27 January 2021
Orbit: 839 x 850 km, 71.0° (Epoch: 27 February)

Event Time Altitude Azimuth Distance (km) Brightness Sun altitude
Rises 05:09:24 0° 206° (SSW) 3,380 5.1 -20.5°
Reaches altitude 10° 05:11:50 10° 207° (SSW) 2,451 4.4 -20.1°
Maximum altitude 05:17:28 82° 295° (WNW) 855 2.1 -19.1°
Drops below altitude 10° 05:23:10 10° 24° (NNE) 2,474 4.8 -18.1°
Sets 05:25:38 0° 25° (NNE) 3,414 5.6 -17.6°
